Weather History for Bedford, MA

Change the Weather History Date:

Monday, May 19, 2014

  Actual Average Record
Temperature  
Mean Temperature 56 °F -  
Max Temperature 66 °F 68 °F 95 °F (1962)
Min Temperature 46 °F 46 °F 33 °F (2002)
Degree Days  
Heating Degree Days 9    
Growing Degree Days 6 (Base 50)    
Moisture  
Dew Point 39 °F    
Average Humidity 58    
Maximum Humidity 96    
Minimum Humidity 34    
Precipitation  
Precipitation 0.05 in - - ()
Sea Level Pressure  
Sea Level Pressure 30.08 in    
Wind  
Wind Speed 9 mph (NW)    
Max Wind Speed 20 mph    
Max Gust Speed 25 mph    
Visibility 10 miles    
Events Rain    
Averages and records for this station are not official NWS values.
T = Trace of Precipitation, MM = Missing Value Source: NWS Daily Summary

Daily Weather History Graph

Daily Weather History Graph

Search for Another Location

Airport:

Trip Planner

Search our weather history database for the weather conditions in past years. The results will help you decide how hot, cold, wet, or windy it might be!

Date:

Astronomy

May. 19, 2014 Rise Set
Actual Time 5:19 AM EDT 8:04 PM EDT
Civil Twilight 4:46 AM EDT 8:37 PM EDT
Nautical Twilight 4:05 AM EDT 9:18 PM EDT
Astronomical Twilight 3:18 AM EDT 10:05 PM EDT
Moon No Moon Rise 10:15 AM EDT (5/19)
Length of Visible Light 15h 50m
Length of Day
14h 44m
Waning Gibbous, 71% of the Moon is Illuminated
May 19
Waning Gibbous
May 21
Last Quarter
May 28
New
Jun 5
First Quarter
Jun 13
Full

Hourly Weather History & Observations

Time (EDT) Temp. Windchill Dew Point Humidity Pressure Visibility Wind Dir Wind Speed Gust Speed Precip Events Conditions
12:56 AM 53.1 °F - 33.1 °F 47% 30.09 in 10.0 mi WNW 10.4 mph - N/A   Partly Cloudy
1:56 AM 50.0 °F - 33.8 °F 54% 30.05 in 10.0 mi NW 6.9 mph - N/A   Clear
2:56 AM 50.0 °F - 34.0 °F 54% 30.09 in 10.0 mi NNW 5.8 mph - N/A   Mostly Cloudy
3:56 AM 48.9 °F - 35.1 °F 59% 30.10 in 10.0 mi WNW 10.4 mph - N/A   Overcast
4:56 AM 46.9 °F - 34.0 °F 61% 30.11 in 10.0 mi WNW 6.9 mph - N/A   Clear
5:56 AM 46.0 °F 43.9 °F 35.1 °F 66% 30.12 in 10.0 mi West 4.6 mph - N/A   Clear
6:56 AM 51.1 °F - 35.1 °F 54% 30.12 in 10.0 mi WNW 11.5 mph - N/A   Clear
7:56 AM 54.0 °F - 35.1 °F 49% 30.12 in 10.0 mi NW 11.5 mph 19.6 mph N/A   Clear
10:56 AM 63.0 °F - 37.0 °F 38% 30.08 in 10.0 mi NW 19.6 mph 25.3 mph N/A   Scattered Clouds
11:56 AM 61.0 °F - 35.1 °F 38% 30.07 in 10.0 mi NW 10.4 mph - 0.00 in   Overcast
12:56 PM 66.0 °F - 37.0 °F 34% 30.05 in 10.0 mi NW 12.7 mph - 0.00 in   Mostly Cloudy
1:56 PM 57.9 °F - 42.1 °F 56% 30.06 in 10.0 mi NW 6.9 mph - 0.00 in   Mostly Cloudy
2:56 PM 64.0 °F - 36.0 °F 35% 30.05 in 10.0 mi NW 17.3 mph 24.2 mph N/A   Mostly Cloudy
3:56 PM 57.0 °F - 43.0 °F 59% 30.06 in 10.0 mi NW 9.2 mph - 0.01 in   Overcast
4:56 PM 57.9 °F - 39.0 °F 49% 30.08 in 10.0 mi NNW 16.1 mph 25.3 mph 0.01 in Rain Light Rain
5:56 PM 59.0 °F - 39.9 °F 49% 30.07 in 10.0 mi NW 6.9 mph - 0.00 in Rain Light Rain
6:56 PM 59.0 °F - 39.9 °F 49% 30.06 in 10.0 mi North 10.4 mph - 0.00 in   Overcast
7:56 PM 57.0 °F - 41.0 °F 55% 30.08 in 10.0 mi NNE 11.5 mph - 0.00 in Rain Light Rain
8:56 PM 52.0 °F - 46.9 °F 83% 30.09 in 10.0 mi Calm Calm - 0.00 in Rain Light Rain
9:56 PM 51.1 °F - 48.9 °F 92% 30.07 in 10.0 mi South 5.8 mph - 0.02 in Rain Light Rain
10:56 PM 51.1 °F - 50.0 °F 96% 30.07 in 10.0 mi Calm Calm - 0.00 in Rain Light Rain
11:56 PM 50.0 °F - 48.0 °F 93% 30.05 in 10.0 mi WSW 5.8 mph - 0.01 in Rain Light Rain